• En Colombia
  • Lista de países
  • Para 7 días
  • Temperatura del agua
  • El tiempo en el mapa
  • Informadores
  • user-avatar
    Iniciar sesión

    Tiempo cada hora Tibissa

    Hoy, 21 Febrero, Viernes

    Tiempo Temperatura Precipitaciones Viento Presión Humedad
    00:00 +7°C° 0 mm 0 mps 689 mmHg 56%
    01:00 +7°C° 0 mm 0 mps 689 mmHg 57%
    02:00 +7°C° 0 mm 0 mps 689 mmHg 57%
    03:00 +6°C° 0 mm 0 mps 689 mmHg 57%
    04:00 +6°C° 0 mm 0 mps 689 mmHg 58%
    05:00 +7°C° 0 mm 1 mps 689 mmHg 58%
    06:00 +7°C° 0 mm 1 mps 689 mmHg 58%
    07:00 +6°C° 0 mm 1 mps 689 mmHg 58%
    14:00 +17°C° 0 mm 4 mps 691 mmHg 26%
    15:00 +17°C° 0 mm 4 mps 691 mmHg 25%
    16:00 +16°C° 0 mm 5 mps 691 mmHg 25%
    17:00 +14°C° 0 mm 4 mps 691 mmHg 33%
    18:00 +12°C° 0 mm 3 mps 691 mmHg 41%
    19:00 +11°C° 0 mm 3 mps 690 mmHg 49%
    20:00 +10°C° 0 mm 2 mps 691 mmHg 53%
    21:00 +9°C° 0 mm 2 mps 691 mmHg 58%
    22:00 +9°C° 0 mm 1 mps 691 mmHg 63%
    23:00 +9°C° 0 mm 1 mps 691 mmHg 64%

    Mañana, 22 Febrero, Sábado

    Tiempo Temperatura Precipitaciones Viento Presión Humedad
    00:00 +8°C° 0 mm 1 mps 691 mmHg 65%
    01:00 +8°C° 0 mm 1 mps 690 mmHg 66%
    02:00 +7°C° 0 mm 1 mps 690 mmHg 64%
    03:00 +7°C° 0 mm 1 mps 690 mmHg 63%
    04:00 +6°C° 0 mm 1 mps 690 mmHg 62%
    05:00 +5°C° 0 mm 2 mps 690 mmHg 63%
    06:00 +5°C° 0 mm 2 mps 690 mmHg 63%
    07:00 +5°C° 0 mm 2 mps 691 mmHg 64%
    08:00 +7°C° 0 mm 2 mps 691 mmHg 55%
    09:00 +9°C° 0 mm 3 mps 692 mmHg 45%
    10:00 +11°C° 0 mm 3 mps 693 mmHg 35%
    11:00 +12°C° 0 mm 4 mps 693 mmHg 31%
    12:00 +13°C° 0 mm 4 mps 693 mmHg 28%
    13:00 +14°C° 0 mm 5 mps 693 mmHg 24%
    14:00 +14°C° 0 mm 5 mps 693 mmHg 26%
    15:00 +15°C° 0 mm 6 mps 693 mmHg 28%
    16:00 +15°C° 0 mm 6 mps 693 mmHg 29%
    17:00 +13°C° 0 mm 5 mps 693 mmHg 41%
    18:00 +11°C° 0 mm 4 mps 693 mmHg 54%
    19:00 +9°C° 0 mm 3 mps 693 mmHg 66%
    20:00 +9°C° 0 mm 3 mps 693 mmHg 72%
    21:00 +8°C° 0 mm 2 mps 693 mmHg 78%
    22:00 +8°C° 0 mm 1 mps 693 mmHg 84%
    23:00 +7°C° 0 mm 1 mps 693 mmHg 84%

    Pasado mañana, 23 Febrero, Domingo

    Tiempo Temperatura Precipitaciones Viento Presión Humedad
    00:00 +7°C° 0 mm 1 mps 693 mmHg 84%
    01:00 +7°C° 0 mm 1 mps 693 mmHg 83%
    02:00 +6°C° 0 mm 1 mps 693 mmHg 84%
    03:00 +6°C° 0 mm 1 mps 693 mmHg 84%
    04:00 +5°C° 0 mm 1 mps 693 mmHg 84%
    05:00 +5°C° 0 mm 1 mps 693 mmHg 85%
    06:00 +5°C° 0 mm 1 mps 693 mmHg 86%
    07:00 +3°C° 0 mm 0 mps 693 mmHg 87%
    08:00 +5°C° 0 mm 0 mps 694 mmHg 76%
    09:00 +7°C° 0 mm 0 mps 694 mmHg 64%
    10:00 +10°C° 0 mm 1 mps 695 mmHg 52%
    11:00 +12°C° 0 mm 1 mps 695 mmHg 45%
    12:00 +14°C° 0 mm 2 mps 695 mmHg 37%
    13:00 +15°C° 0 mm 2 mps 696 mmHg 30%
    14:00 +16°C° 0 mm 3 mps 695 mmHg 29%
    15:00 +16°C° 0 mm 3 mps 695 mmHg 29%
    16:00 +17°C° 0 mm 3 mps 695 mmHg 29%
    17:00 +15°C° 0 mm 2 mps 695 mmHg 35%
    18:00 +14°C° 0 mm 2 mps 694 mmHg 41%
    19:00 +12°C° 0 mm 1 mps 694 mmHg 47%
    20:00 +12°C° 0 mm 1 mps 694 mmHg 50%
    21:00 +10°C° 0 mm 0 mps 694 mmHg 53%
    22:00 +9°C° 0 mm 0 mps 694 mmHg 56%
    23:00 +9°C° 0 mm 0 mps 694 mmHg 56%

    24 Febrero, Lunes

    Tiempo Temperatura Precipitaciones Viento Presión Humedad
    00:00 +8°C° 0 mm 0 mps 694 mmHg 57%
    01:00 +9°C° 0 mm 1 mps 693 mmHg 57%
    02:00 +9°C° 0 mm 1 mps 693 mmHg 57%
    03:00 +8°C° 0 mm 1 mps 693 mmHg 57%
    04:00 +8°C° 0 mm 1 mps 692 mmHg 57%
    05:00 +8°C° 0 mm 1 mps 692 mmHg 56%
    06:00 +8°C° 0 mm 1 mps 692 mmHg 54%
    07:00 +8°C° 0 mm 1 mps 692 mmHg 53%
    08:00 +9°C° 0 mm 2 mps 692 mmHg 46%
    09:00 +13°C° 0 mm 2 mps 693 mmHg 40%
    10:00 +15°C° 0 mm 2 mps 694 mmHg 33%
    11:00 +17°C° 0 mm 2 mps 693 mmHg 30%
    12:00 +18°C° 0 mm 2 mps 693 mmHg 27%
    13:00 +19°C° 0 mm 3 mps 693 mmHg 24%
    14:00 +20°C° 0 mm 3 mps 693 mmHg 24%
    15:00 +20°C° 0 mm 3 mps 692 mmHg 24%
    16:00 +20°C° 0 mm 3 mps 692 mmHg 24%
    17:00 +18°C° 0 mm 2 mps 691 mmHg 30%
    18:00 +16°C° 0 mm 2 mps 691 mmHg 35%
    19:00 +15°C° 0 mm 1 mps 691 mmHg 41%
    20:00 +14°C° 0 mm 1 mps 691 mmHg 44%
    21:00 +12°C° 0 mm 0 mps 691 mmHg 47%
    22:00 +11°C° 0 mm 0 mps 690 mmHg 50%
    23:00 +11°C° 0 mm 0 mps 690 mmHg 50%

    25 Febrero, Martes

    Tiempo Temperatura Precipitaciones Viento Presión Humedad
    00:00 +10°C° 0 mm 0 mps 690 mmHg 50%
    01:00 +11°C° 0 mm 1 mps 690 mmHg 50%
    02:00 +11°C° 0 mm 1 mps 689 mmHg 50%
    03:00 +11°C° 0 mm 1 mps 689 mmHg 49%
    04:00 +11°C° 0 mm 1 mps 689 mmHg 49%
    05:00 +10°C° 0 mm 1 mps 688 mmHg 50%
    06:00 +10°C° 0 mm 1 mps 688 mmHg 51%
    07:00 +9°C° 0 mm 2 mps 688 mmHg 51%
    08:00 +12°C° 0 mm 2 mps 689 mmHg 46%
    09:00 +14°C° 0 mm 2 mps 689 mmHg 41%
    10:00 +16°C° 0 mm 2 mps 690 mmHg 36%
    11:00 +18°C° 0 mm 3 mps 690 mmHg 31%
    12:00 +19°C° 0 mm 3 mps 690 mmHg 27%
    13:00 +20°C° 0 mm 4 mps 690 mmHg 22%
    14:00 +20°C° 0 mm 4 mps 689 mmHg 22%
    15:00 +21°C° 0 mm 4 mps 689 mmHg 21%
    16:00 +21°C° 0 mm 4 mps 688 mmHg 21%
    17:00 +19°C° 0 mm 3 mps 688 mmHg 27%
    18:00 +17°C° 0 mm 2 mps 688 mmHg 34%
    19:00 +15°C° 0 mm 2 mps 687 mmHg 40%
    20:00 +14°C° 0 mm 1 mps 687 mmHg 44%
    21:00 +13°C° 0 mm 1 mps 687 mmHg 49%
    22:00 +11°C° 0 mm 0 mps 687 mmHg 53%
    23:00 +10°C° 0 mm 0 mps 687 mmHg 55%

    26 Febrero, Miércoles

    Tiempo Temperatura Precipitaciones Viento Presión Humedad
    00:00 +10°C° 0 mm 0 mps 687 mmHg 56%
    01:00 +9°C° 0 mm 0 mps 686 mmHg 58%
    02:00 +9°C° 0 mm 0 mps 686 mmHg 59%
    03:00 +10°C° 0 mm 1 mps 686 mmHg 60%
    04:00 +10°C° 0 mm 1 mps 685 mmHg 61%
    05:00 +9°C° 0 mm 1 mps 685 mmHg 63%
    06:00 +8°C° 0 mm 2 mps 685 mmHg 64%
    07:00 +8°C° 0 mm 2 mps 685 mmHg 66%
    08:00 +10°C° 0 mm 3 mps 686 mmHg 57%
    09:00 +11°C° 0 mm 4 mps 687 mmHg 49%
    10:00 +13°C° 0 mm 5 mps 687 mmHg 40%
    11:00 +14°C° 0 mm 5 mps 687 mmHg 37%
    12:00 +15°C° 0 mm 5 mps 687 mmHg 33%
    13:00 +16°C° 0 mm 5 mps 687 mmHg 30%
    14:00 +16°C° 0 mm 5 mps 687 mmHg 31%
    15:00 +16°C° 0 mm 5 mps 687 mmHg 31%
    16:00 +16°C° 0 mm 5 mps 686 mmHg 31%
    17:00 +15°C° 0 mm 4 mps 686 mmHg 41%
    18:00 +13°C° 0 mm 4 mps 686 mmHg 50%
    19:00 +12°C° 0 mm 3 mps 686 mmHg 60%
    20:00 +12°C° 0 mm 2 mps 686 mmHg 67%
    21:00 +10°C° 0 mm 2 mps 687 mmHg 75%
    22:00 +10°C° 0 mm 1 mps 687 mmHg 82%
    23:00 +10°C° 0 mm 1 mps 687 mmHg 84%
    Mostrar más